User: anonymous   Login
Location: Viterbo
(42.4170°N, 12.1000°E)
Time: 21:31:01
(UTC+01:00)
Language:

XW-2C - Orbit

View from above orbital plane
View from above orbital plane
View from above satellite
View from above satellite

Ground track
Ground track

The orbit data is extracted from the following two-line orbital elements,

1 40906U 15049H   20020.54163390  .00000634  00000-0  36519-4 0  9994
2 40906  97.4736  24.1361 0014893 163.9745 315.7485 15.15900892239696
Epoch (UTC): 20 January 2020 12:59:57
Eccentricity: 0.0014893
inclination: 97.4736°
perigee height: 508 km
apogee height: 528 km
right ascension of ascending node: 24.1361°
argument of perigee: 163.9745°
revolutions per day: 15.15900892
mean anomaly at epoch: 315.7485°
orbit number at epoch: 23969

The dashed part of the orbit path shows where the satellite is in the earth's shadow,  

DLR